Faribault, MN

12:44 PM CDT on May 28, 2017 (GMT -0500)
Faribault Municipal

Weather History for KFBL - April, 2013

Change the Weather History Date:

Wednesday, April 17, 2013

  Actual Average Record
Temperature  
Mean Temperature 35 °F -  
Max Temperature 37 °F 58 °F 80 °F (1958)
Min Temperature 33 °F 35 °F 17 °F (1983)
Degree Days  
Heating Degree Days 30    
Moisture  
Dew Point 32 °F    
Average Humidity 90    
Maximum Humidity 100    
Minimum Humidity 75    
Precipitation  
Precipitation 0.00 in - - ()
Sea Level Pressure  
Sea Level Pressure 30.12 in    
Wind  
Wind Speed 6 mph (NE)    
Max Wind Speed 16 mph    
Max Gust Speed 24 mph    
Visibility 8 miles    
Events      
Averages and records for this station are not official NWS values.
T = Trace of Precipitation, MM = Missing Value Source: NWS Daily Summary

Daily Weather History Graph

Daily Weather History Graph

Search for Another Location

Airport or City:

Trip Planner

Search our weather history database for the weather conditions in past years. The results will help you decide how hot, cold, wet, or windy it might be!

Date:

Astronomy

Apr. 17, 2013 Rise Set
Actual Time 6:25 AM CDT 8:00 PM CDT
Civil Twilight 5:55 AM CDT 8:31 PM CDT
Nautical Twilight 5:18 AM CDT 9:08 PM CDT
Astronomical Twilight 4:38 AM CDT 9:47 PM CDT
Moon 11:35 AM CDT (4/17) 1:43 AM CDT (4/17)
Length of Visible Light 14h 35m
Length of Day
13h 34m
Waxing Crescent, 42% of the Moon is Illuminated
Apr 17
Waxing Crescent
Apr 18
First Quarter
Apr 25
Full
May 2
Last Quarter
May 9
New

Hourly Weather History & Observations

Time (CDT) Temp. Windchill Dew Point Humidity Pressure Visibility Wind Dir Wind Speed Gust Speed Precip Events Conditions
12:01 AM 35.6 °F - 30.2 °F 81% 30.29 in 10.0 mi North 2.3 mph - N/A   Clear
12:21 AM 35.6 °F - 30.2 °F 81% 30.31 in 10.0 mi Calm Calm - N/A   Clear
12:41 AM 33.8 °F - 30.2 °F 87% 30.30 in 10.0 mi East 2.3 mph - N/A   Clear
1:01 AM 33.8 °F - 30.2 °F 87% 30.29 in 10.0 mi NNE 2.3 mph - N/A   Clear
1:21 AM 33.8 °F - 30.2 °F 87% 30.29 in 10.0 mi NE 1.2 mph - N/A   Clear
1:42 AM 33.8 °F - 30.2 °F 87% 30.29 in 10.0 mi North 2.3 mph - N/A   Scattered Clouds
2:01 AM 33.8 °F 30.8 °F 30.2 °F 87% 30.28 in 10.0 mi NNE 3.5 mph - N/A   Scattered Clouds
2:21 AM 33.8 °F - 28.4 °F 81% 30.28 in 10.0 mi NNE 2.3 mph - N/A   Scattered Clouds
2:41 AM 33.8 °F - 28.4 °F 81% 30.29 in 10.0 mi NNE 1.2 mph - N/A   Clear
3:01 AM 33.8 °F - 28.4 °F 81% 30.29 in 10.0 mi NNE 1.2 mph - N/A   Mostly Cloudy
3:30 AM 33.8 °F - 30.2 °F 87% 30.28 in 10.0 mi North 2.3 mph - N/A   Overcast
3:45 AM 33.8 °F 29.6 °F 30.2 °F 87% 30.27 in 10.0 mi North 4.6 mph - N/A   Overcast
4:01 AM 33.8 °F 30.8 °F 30.2 °F 87% 30.28 in 10.0 mi North 3.5 mph - N/A   Overcast
4:21 AM 33.8 °F 28.6 °F 30.2 °F 87% 30.26 in 10.0 mi NNE 5.8 mph - N/A   Mostly Cloudy
4:51 AM 33.8 °F 28.6 °F 28.4 °F 81% 30.24 in 10.0 mi NNE 5.8 mph - N/A   Mostly Cloudy
5:06 AM 33.8 °F 29.6 °F 28.4 °F 81% 30.23 in 10.0 mi North 4.6 mph - N/A   Scattered Clouds
5:24 AM 33.8 °F 27.0 °F 28.4 °F 81% 30.20 in 10.0 mi NNE 8.1 mph - N/A   Mostly Cloudy
6:01 AM 33.8 °F 28.6 °F 28.4 °F 81% 30.19 in 10.0 mi NE 5.8 mph - N/A   Overcast
6:13 AM 35.6 °F 31.7 °F 28.4 °F 75% 30.21 in 10.0 mi NE 4.6 mph - N/A   Overcast
6:28 AM 35.6 °F - 28.4 °F 75% 30.24 in 10.0 mi NNE 1.2 mph - N/A   Overcast
6:54 AM 35.6 °F - 28.4 °F 75% 30.28 in 10.0 mi West 2.3 mph - N/A   Overcast
7:14 AM 35.6 °F 32.8 °F 30.2 °F 81% 30.26 in 10.0 mi NNE 3.5 mph - N/A   Overcast
7:33 AM 35.6 °F 30.7 °F 28.4 °F 75% 30.24 in 10.0 mi NNE 5.8 mph - N/A   Overcast
7:55 AM 35.6 °F 29.9 °F 30.2 °F 81% 30.23 in 10.0 mi NE 6.9 mph - N/A   Overcast
8:08 AM 35.6 °F 30.7 °F 30.2 °F 81% 30.23 in 10.0 mi NE 5.8 mph - N/A   Overcast
8:21 AM 35.6 °F 29.9 °F 30.2 °F 81% 30.22 in 10.0 mi NE 6.9 mph - N/A   Overcast
9:12 AM 35.6 °F 29.2 °F 30.2 °F 81% 30.19 in 10.0 mi NNE 8.1 mph - N/A   Overcast
9:35 AM 35.6 °F 30.7 °F 30.2 °F 81% 30.21 in 10.0 mi NNE 5.8 mph - N/A   Overcast
10:12 AM 35.6 °F 29.9 °F 30.2 °F 81% 30.23 in 10.0 mi ENE 6.9 mph - N/A   Overcast
10:35 AM 35.6 °F 30.7 °F 30.2 °F 81% 30.23 in 10.0 mi ENE 5.8 mph - N/A   Overcast
11:01 AM - - - N/A% 30.23 in 10.0 mi NE 8.1 mph - N/A   Mostly Cloudy
11:24 AM 35.6 °F 29.2 °F 30.2 °F 81% 30.20 in 7.0 mi NE 8.1 mph - N/A   Mostly Cloudy
11:50 AM 35.6 °F 27.5 °F 32.0 °F 87% 30.15 in 7.0 mi NE 11.5 mph 17.3 mph N/A   Overcast
12:13 PM 33.8 °F 24.8 °F 32.0 °F 93% 30.13 in 7.0 mi ENE 12.7 mph - N/A   Overcast
1:29 PM 37.4 °F 29.3 °F 35.6 °F 93% 30.09 in 10.0 mi NE 12.7 mph 18.4 mph N/A   Overcast
1:41 PM 37.4 °F 29.3 °F 35.6 °F 93% 30.07 in 10.0 mi ENE 12.7 mph 16.1 mph N/A   Overcast
2:11 PM 37.4 °F 29.8 °F 35.6 °F 93% 30.07 in 10.0 mi ENE 11.5 mph 17.3 mph N/A   Overcast
2:26 PM 37.4 °F 29.3 °F 35.6 °F 93% 30.08 in 10.0 mi ENE 12.7 mph 18.4 mph N/A   Overcast
2:41 PM 37.4 °F 29.8 °F 35.6 °F 93% 30.06 in 7.0 mi ENE 11.5 mph - N/A   Overcast
3:21 PM 37.4 °F 30.3 °F 35.6 °F 93% 30.04 in 5.0 mi NE 10.4 mph 18.4 mph N/A   Overcast
3:53 PM 35.6 °F 28.0 °F 35.6 °F 100% 30.04 in 3.0 mi NE 10.4 mph - N/A   Overcast
4:14 PM 35.6 °F 29.9 °F 35.6 °F 100% 30.04 in 2.5 mi NE 6.9 mph - N/A   Overcast
4:21 PM 35.6 °F 28.0 °F 35.6 °F 100% 30.04 in 2.0 mi NE 10.4 mph - N/A   Overcast
4:52 PM 35.6 °F 28.6 °F 35.6 °F 100% 30.01 in 2.5 mi NE 9.2 mph 16.1 mph N/A   Overcast
5:11 PM 35.6 °F 27.5 °F 35.6 °F 100% 29.99 in 4.0 mi NNE 11.5 mph 18.4 mph N/A   Overcast
5:29 PM 35.6 °F 27.1 °F 35.6 °F 100% 29.99 in 7.0 mi NNE 12.7 mph 17.3 mph N/A   Overcast
5:52 PM 35.6 °F 27.5 °F 35.6 °F 100% 29.98 in 7.0 mi NE 11.5 mph 18.4 mph N/A   Overcast
6:07 PM 35.6 °F 27.5 °F 35.6 °F 100% 29.97 in 3.0 mi NNE 11.5 mph 18.4 mph N/A   Overcast
6:35 PM 35.6 °F 26.6 °F 35.6 °F 100% 29.96 in 3.0 mi NNE 13.8 mph 19.6 mph N/A   Overcast
6:50 PM 35.6 °F 27.1 °F 35.6 °F 100% 29.95 in 3.0 mi NNE 12.7 mph 23.0 mph N/A   Overcast
7:14 PM 35.6 °F 26.2 °F 35.6 °F 100% 29.94 in 3.0 mi NNE 15.0 mph 18.4 mph N/A   Overcast
7:23 PM 35.6 °F 27.1 °F 35.6 °F 100% 29.94 in 3.0 mi NNE 12.7 mph 20.7 mph N/A   Overcast
7:51 PM 35.6 °F 27.5 °F 35.6 °F 100% 29.96 in 4.0 mi NNE 11.5 mph 21.9 mph N/A   Overcast
8:01 PM 35.6 °F 27.5 °F 35.6 °F 100% 29.96 in 4.0 mi NNE 11.5 mph 16.1 mph N/A   Overcast
8:21 PM 35.6 °F 28.0 °F 35.6 °F 100% 29.99 in 4.0 mi NNE 10.4 mph - N/A   Overcast
9:01 PM 35.6 °F 27.5 °F 35.6 °F 100% 29.97 in 5.0 mi NNE 11.5 mph 18.4 mph N/A   Overcast
9:54 PM 35.6 °F 25.9 °F 35.6 °F 100% 29.89 in 7.0 mi NNE 16.1 mph 23.0 mph N/A   Overcast
10:09 PM 35.6 °F 26.6 °F 35.6 °F 100% 29.87 in 10.0 mi NNE 13.8 mph 20.7 mph N/A   Overcast
10:21 PM 35.6 °F 27.1 °F 35.6 °F 100% 29.90 in 10.0 mi NE 12.7 mph 21.9 mph N/A   Overcast
10:41 PM 35.6 °F 27.1 °F 35.6 °F 100% 29.90 in 10.0 mi NE 12.7 mph 24.2 mph N/A   Overcast
11:01 PM 33.8 °F 24.8 °F 33.8 °F 100% 29.88 in 5.0 mi NE 12.7 mph - N/A   Overcast
11:21 PM 33.8 °F 24.8 °F 33.8 °F 100% 29.87 in 5.0 mi NNE 12.7 mph 18.4 mph N/A   Overcast
11:41 PM 33.8 °F 24.8 °F 33.8 °F 100% 29.87 in 5.0 mi NNE 12.7 mph 17.3 mph N/A   Overcast